RH
91 82 69 58 48 39 32 26 24 23 22 23 24 24 23 22 24 32 42 44 44 47 24 34 54 84 88 85 75 78 76 82 89 93 86 76 95 81 95 78 74 80 82 79 78 90 85 54 57 91 96 94 96 96
51 35 27 25 24 24 26 28 28 29 31 32 32 33 48 51 71 75 69 68 65 60 40 45 54 58 65 79 97 90 82 94 89 89 93 95 85 93 88 74 64 78 71 66 62 48 46 55 57 67 94 99 99 99
28 28 28 29 30 32 32 34 35 34 35 43 58 81 85 85 97 94 92 87 79 80 64 61 73 80 76 63 81 98 85 75 96 94 96 91 86 82 70 69 73 66 69 75 81 53 56 87 98 93 97 97 97 93
33 35 37 39 41 45 51 56 55 56 59 60 61 68 83 94 94 93 96 99 96 96 98 78 73 84 78 69 75 89 98 95 99 100 98 90 77 76 70 73 78 58 76 68 64 58 84 88 78 82 71 70 69 80
44 46 49 50 51 51 51 51 50 50 54 60 72 79 78 82 84 83 91 98 96 94 97 90 77 81 71 76 84 87 92 99 98 98 95 87 88 87 77 88 81 73 92 74 68 75 88 75 57 44 50 60 67 70
51 48 46 46 46 47 48 48 50 52 57 65 68 71 71 72 76 81 89 97 90 88 88 97 82 75 72 73 63 78 96 100 99 98 92 95 99 97 86 84 77 73 70 76 72 64 61 42 37 57 53 50 52 58
42 42 44 48 50 52 53 54 55 57 60 62 64 62 63 67 67 86 80 90 92 90 100 89 74 70 72 73 77 83 91 100 99 98 98 100 100 92 88 84 70 56 43 45 42 39 39 41 52 45 49 51 56 61
49 44 42 45 48 49 52 57 62 62 63 62 60 57 58 71 97 99 98 96 95 87 99 92 80 72 65 65 75 80 96 100 98 95 98 95 95 98 93 79 71 46 44 45 52 49 46 48 51 52 56 58 60 66
40 36 35 39 47 52 53 47 40 40 41 38 36 46 75 82 91 95 83 89 97 95 92 97 92 87 64 70 79 90 98 95 93 98 95 96 83 92 78 66 66 58 61 57 53 49 48 53 57 59 64 70 76 80
38 44 55 55 41 30 25 25 27 36 43 47 45 65 82 91 85 89 94 97 100 98 100 98 96 92 79 86 86 98 94 92 97 88 97 91 88 66 62 62 59 61 63 54 52 54 60 65 68 68 74 86 95 97
40 51 40 27 26 27 35 40 44 44 49 55 57 67 89 88 87 88 83 82 93 90 92 90 92 91 91 86 76 96 87 90 95 80 87 90 89 70 55 52 57 58 52 54 58 61 71 76 79 78 83 93 99 96
26 31 28 27 30 38 53 60 58 55 61 73 88 98 98 98 85 74 94 88 95 73 73 96 88 99 100 100 98 95 94 93 95 94 93 90 79 45 50 45 44 46 54 63 72 74 76 83 89 92 96 98 97 88
26 28 29 31 34 39 53 62 66 71 70 71 96 99 97 84 89 90 78 80 83 77 72 76 87 90 100 98 96 94 94 92 95 93 87 78 51 44 46 50 50 52 58 67 86 88 82 93 98 97 95 95 89 74
34 33 32 33 36 46 71 76 84 84 71 76 85 95 92 91 95 85 75 68 54 58 66 74 84 98 100 98 94 92 83 92 94 95 85 69 65 86 84 84 86 86 91 98 100 100 98 97 97 97 96 91 81 67
39 37 36 44 41 66 78 86 88 98 87 79 89 96 95 73 74 70 71 71 61 63 68 83 99 100 95 94 92 91 94 92 85 77 69 94 96 93 91 89 92 94 96 98 98 96 96 96 96 94 91 84 74 65
53 51 54 57 59 68 81 76 72 100 96 87 100 98 89 100 72 66 62 61 56 61 75 87 95 94 92 93 93 92 94 93 73 76 95 97 100 97 94 94 95 94 95 95 95 96 96 96 96 96 93 88 85 86
99 83 68 71 76 76 87 86 92 93 100 98 97 100 90 80 71 47 51 54 60 73 92 96 94 89 92 94 93 84 89 68 94 100 100 96 97 95 95 93 84 89 92 92 92 92 94 96 96 94 90 88 89 85
82 78 85 85 83 86 100 100 89 96 98 93 100 66 81 67 66 58 58 64 73 80 96 93 84 95 94 96 82 73 74 84 93 96 100 96 96 97 94 88 90 94 96 96 95 94 90 88 87 92 92 95 93 90
79 78 85 95 97 96 97 97 95 96 93 92 88 79 84 76 62 57 63 73 83 87 96 97 96 95 87 78 74 90 96 100 98 95 95 96 96 94 94 96 94 93 94 95 93 96 96 98 95 98 95 91 100 95
92 83 78 85 98 98 96 96 94 99 97 79 84 82 80 72 59 58 63 73 84 96 98 97 90 70 91 98 100 99 98 95 92 87 88 89 87 94 92 91 92 94 94 90 87 90 100 84 82 80 88 100 99 82
97 87 86 87 96 98 96 94 97 95 90 86 64 74 77 77 76 76 76 80 100 95 96 93 100 100 97 96 96 96 96 96 97 98 100 100 100 100 100 100 100 98 92 93 100 92 83 83 73 79 72 87 88 86
94 94 99 98 96 97 97 96 86 85 88 88 95 89 90 93 80 72 77 96 100 100 100 100 99 97 97 96 95 95 95 95 96 97 98 98 92 95 100 100 100 100 100 100 100 98 83 73 85 68 69 71 75 76
97 97 99 97 97 97 86 88 99 93 96 94 95 100 96 97 80 87 95 100 100 100 100 99 97 96 97 98 99 100 98 97 96 97 97 96 91 100 100 100 100 100 100 100 97 87 82 76 64 60 56 54 67 80
91 98 96 96 97 92 99 99 99 100 99 97 97 96 96 96 100 99 95 100 100 99 98 98 98 98 98 98 97 97 92 89 88 84 91 99 97 98 100 100 100 100 100 98 90 84 86 82 72 62 60 52 52 88
98 98 98 96 98 96 96 96 96 96 96 97 96 95 95 96 95 95 95 100 99 98 98 98 97 93 83 80 82 84 90 94 94 89 90 94 97 98 100 100 94 90 95 89 88 89 87 87 83 78 70 52 56 99
97 96 95 96 95 95 95 95 95 95 94 94 95 95 96 95 95 97 95 99 99 99 98 88 80 77 78 86 87 86 86 88 88 88 86 87 92 100 100 100 96 82 96 98 95 100 92 90 93 90 75 52 41 43
95 96 95 95 96 96 95 95 96 96 95 96 95 94 95 95 96 96 99 99 99 92 81 79 80 83 80 75 74 76 80 82 82 80 80 82 86 100 100 100 100 96 100 99 100 99 99 100 96 95 95 69 41 35
97 95 85 49 82 97 97 96 95 96 95 97 94 96 97 96 94 99 99 99 89 73 62 62 62 60 58 60 62 62 63 63 63 63 67 79 84 92 99 100 100 100 100 100 100 100 100 100 100 100 97 93 68 39
94 62 46 88 84 94 100 99 98 98 95 81 94 90 90 100 100 100 98 84 60 58 59 61 62 64 66 70 69 67 69 71 69 71 74 78 77 73 86 90 93 93 99 100 91 98 100 100 100 100 99 100 98 77
59 55 62 75 99 100 99 76 69 60 60 70 79 86 96 97 100 100 88 59 60 62 63 62 60 59 61 60 58 51 62 82 88 91 94 88 89 90 92 92 90 88 95 100 96 85 90 98 91 91 92 91 93 89
56 55 76 86 88 70 62 58 47 43 53 70 84 96 100 100 100 100 68 78 77 77 81 80 76 74 71 71 79 87 77 74 91 98 100 100 99 96 98 92 83 90 100 97 100 100 100 99 98 90 95 95 92 94
56 67 84 95 66 52 57 49 51 63 78 98 100 100 100 100 100 78 72 87 82 82 85 86 81 79 83 83 86 89 91 92 99 100 100 100 98 98 92 98 100 100 94 96 100 100 100 100 99 98 100 99 98 97
61 84 91 78 63 59 60 65 64 82 87 98 100 99 100 100 95 68 84 87 86 86 91 97 90 86 88 91 89 85 88 95 99 100 100 100 100 100 100 91 86 100 100 100 95 98 100 100 100 100 100 100 98 98
Wind_Speed
7 7 9 9 9 9 9 10 11 13 14 15 16 16 16 15 13 9 8 8 5 6 17 15 9 5 7 4 4 4 5 1 1 4 3 3 2 2 3 1 0 3 3 5 3 5 6 3 2 4 8 14 18 21
10 9 10 9 9 10 11 12 13 14 15 16 17 17 16 17 16 14 12 13 11 9 11 18 19 15 15 14 9 5 3 1 4 2 2 2 3 2 1 7 3 5 6 4 7 7 5 9 10 13 9 21 19 5
11 10 10 10 10 10 11 12 13 15 16 16 15 14 16 15 15 16 18 19 14 6 10 2 1 1 9 10 7 6 6 6 3 2 1 3 6 1 5 6 5 5 5 4 5 6 15 14 16 17 17 14 10 11
11 11 11 11 11 12 13 14 15 15 16 16 15 15 15 14 14 15 16 12 8 4 4 3 7 14 8 10 6 13 19 14 12 12 5 4 5 6 5 4 5 11 1 9 15 15 13 9 11 13 16 14 14 14
11 11 11 11 11 11 12 14 15 16 16 16 16 16 15 12 14 15 11 6 7 8 4 9 18 3 8 10 6 5 6 8 6 5 6 4 4 3 5 3 7 4 2 3 5 9 2 5 13 13 15 17 19 20
10 10 10 11 12 13 14 15 16 16 16 17 17 17 17 16 15 11 3 3 3 14 4 4 7 7 9 14 9 7 6 4 4 3 4 5 4 4 3 3 1 1 2 2 1 5 2 7 11 12 20 19 20 19
11 12 12 12 13 13 13 14 15 15 16 16 18 19 21 20 16 5 4 7 10 10 2 4 6 5 12 9 6 4 4 3 4 3 4 3 3 6 2 3 2 5 10 7 8 8 7 9 13 19 23 24 26 22
11 13 13 13 13 14 14 15 15 16 17 17 18 20 20 12 2 1 1 7 8 4 3 2 3 6 8 6 5 5 3 1 4 3 3 2 4 2 4 6 3 6 4 4 5 11 11 14 21 23 25 28 29 26
13 14 13 13 14 14 16 17 17 18 19 20 19 17 8 2 1 8 17 9 6 5 2 2 2 2 5 5 5 4 4 2 2 3 2 2 2 5 6 8 8 6 2 5 13 14 15 23 27 25 25 28 25 24
12 12 12 14 15 15 16 17 17 17 18 17 11 4 2 5 17 7 3 1 2 3 4 3 3 3 3 4 3 4 2 2 2 0 4 2 3 17 17 16 13 15 4 9 13 21 28 28 28 28 27 22 21 25
12 12 13 14 15 15 15 15 17 18 18 14 8 3 10 12 4 2 2 1 1 2 4 4 6 3 3 3 3 2 2 1 2 0 2 1 3 5 3 2 6 4 5 11 21 26 22 22 27 27 25 23 25 27
13 13 13 14 14 13 14 15 17 18 16 16 13 12 6 3 1 1 2 3 3 2 3 3 3 4 3 3 2 2 2 1 4 2 1 3 3 4 3 4 5 3 10 20 23 24 23 23 23 23 24 25 26 27
13 14 13 13 12 12 13 13 14 15 16 12 2 2 3 2 1 2 2 1 2 3 4 3 3 3 2 3 3 2 3 4 1 2 3 3 3 10 8 10 10 14 19 23 24 23 23 22 21 21 24 24 26 26
16 17 16 14 13 11 10 11 13 15 14 4 3 5 3 3 4 4 3 2 2 5 5 5 5 3 3 3 2 3 1 1 2 2 4 1 7 11 12 13 17 21 24 26 25 22 19 20 21 21 21 23 24 25
16 17 15 12 10 9 11 12 14 13 7 4 3 4 5 8 9 9 10 10 9 7 7 4 5 4 3 3 3 1 2 4 5 4 1 6 12 18 21 22 21 21 21 21 21 21 21 22 22 22 21 22 22 23
16 18 13 9 9 10 14 17 20 11 4 5 6 5 9 4 9 8 11 16 12 7 4 4 3 2 4 3 3 6 3 6 3 1 3 11 13 17 18 21 21 21 20 20 20 20 21 21 22 23 22 21 21 22
17 20 17 17 15 14 16 16 10 6 6 6 8 15 19 15 16 24 22 19 10 7 3 4 4 7 1 3 3 5 5 3 0 4 8 11 15 17 21 22 22 21 21 20 19 19 19 19 20 21 22 22 22 21
20 20 16 17 16 19 19 15 7 8 8 16 9 19 21 25 26 30 28 23 11 8 6 5 5 4 5 5 5 5 8 8 11 11 13 14 14 17 19 18 17 18 18 18 18 18 18 18 20 20 23 24 24 22
22 20 19 17 16 17 6 6 11 7 18 13 19 25 25 24 30 34 30 25 20 16 5 4 5 4 5 9 10 6 7 9 12 17 16 12 15 16 17 16 16 16 18 19 19 18 18 18 19 20 22 23 23 28
24 22 21 20 19 14 7 8 11 8 7 11 20 25 26 24 28 29 27 21 14 7 8 5 6 11 4 6 8 9 11 13 15 15 11 11 14 17 16 17 16 17 18 18 17 17 19 21 21 22 22 21 25 28
26 25 23 20 23 23 13 9 10 8 8 10 17 22 14 19 23 25 23 15 12 8 8 12 8 7 6 8 8 9 9 9 9 10 13 15 16 18 16 16 16 15 16 18 17 20 21 23 25 25 25 24 26 27
29 27 25 25 15 11 15 15 12 9 11 13 12 12 10 10 15 19 12 13 7 6 5 2 4 5 5 5 5 5 7 9 11 13 13 15 17 17 14 15 14 15 15 14 15 20 23 24 24 24 24 26 26 27
31 30 29 20 12 10 9 18 14 11 7 7 7 5 6 9 10 9 6 4 3 1 1 2 3 4 3 3 7 10 11 12 13 15 17 17 16 14 13 13 12 15 15 13 17 22 23 22 23 23 25 25 26 26
23 24 9 10 16 7 7 10 10 7 8 4 4 5 4 8 7 7 2 3 6 8 8 7 7 6 5 7 10 13 16 17 17 14 15 17 15 12 14 11 11 12 13 16 21 23 23 23 24 24 25 27 25 26
9 7 8 6 3 3 2 3 3 1 3 2 3 3 3 2 1 2 3 3 6 6 8 10 10 11 11 11 12 13 15 16 18 18 13 14 15 16 11 9 10 13 14 17 22 25 25 24 25 26 26 26 27 26
3 10 10 12 9 6 5 4 5 3 2 2 2 8 5 3 2 3 2 3 4 8 12 13 13 12 10 11 13 14 14 15 16 16 14 15 15 16 13 13 15 15 13 17 21 25 26 25 25 26 26 27 26 26
5 5 7 11 7 7 7 5 5 3 4 4 4 5 4 3 3 2 3 2 8 11 11 10 10 10 11 12 12 13 14 15 17 18 18 16 14 12 13 13 14 16 17 19 20 21 25 25 25 28 28 26 25 25
4 7 6 20 7 5 4 4 3 5 4 7 10 4 6 4 2 1 2 7 8 8 8 8 10 11 12 13 15 18 18 20 19 19 18 14 12 15 14 14 17 17 15 18 18 17 22 21 24 28 26 24 24 22
3 13 17 5 6 3 6 5 5 5 8 6 2 3 2 2 2 7 5 4 5 6 8 9 10 11 12 12 13 15 18 21 25 25 24 23 22 17 15 18 18 17 18 18 17 15 17 19 21 23 24 23 22 20
6 17 6 5 3 3 3 11 15 23 20 14 10 12 11 8 5 3 1 6 9 11 15 19 18 19 21 23 25 26 23 21 19 20 23 25 25 24 19 18 18 18 16 18 19 21 20 21 22 22 21 22 22 21
9 7 5 4 5 6 14 22 23 25 21 10 9 10 9 6 3 5 11 8 5 8 13 20 24 25 26 26 26 28 31 28 23 22 23 26 26 23 24 25 22 23 21 20 25 22 22 22 24 24 23 22 21 22
7 3 6 3 6 12 17 12 17 8 6 3 2 3 3 2 3 6 13 6 0 6 11 20 25 28 29 30 29 27 28 27 23 24 25 23 25 26 26 29 24 24 27 23 21 22 22 22 25 24 22 22 22 22
6 6 5 6 6 6 10 15 5 7 3 3 2 3 2 2 2 6 9 7 6 9 14 21 28 31 29 28 30 29 24 23 23 23 22 23 22 23 24 24 19 25 21 16 16 18 23 27 27 23 21 21 22 22
Wind_Direction
71 56 49 40 31 19 7 359 356 350 348 348 344 342 341 342 345 355 346 338 312 258 282 283 275 289 298 297 273 330 310 109 153 217 245 259 265 294 307 46 145 219 195 221 226 242 273 165 91 307 338 310 307 297
57 55 50 41 31 20 13 9 2 356 355 353 350 347 352 356 355 1 350 338 324 270 274 289 300 292 271 269 266 243 253 41 217 224 209 281 254 229 271 279 187 259 221 274 212 279 313 330 306 331 325 306 308 343
68 58 51 43 35 27 18 12 5 2 1 1 3 0 358 10 1 351 347 339 342 309 294 313 90 349 332 317 241 237 245 228 210 210 269 272 259 189 253 240 246 232 196 233 284 258 336 353 353 342 345 8 31 9
64 55 47 40 32 27 20 13 8 4 1 1 358 354 355 359 348 345 345 345 5 337 308 306 327 320 322 326 303 234 245 252 262 287 269 255 255 230 259 275 262 283 228 267 280 297 339 1 25 2 1 355 334 315
56 48 39 29 19 10 4 360 359 356 355 352 348 346 345 338 332 337 344 23 46 27 313 291 309 22 354 341 304 297 273 256 255 223 227 245 260 280 259 277 262 297 295 310 305 360 333 338 5 357 336 331 329 324
39 25 15 5 358 354 352 350 348 347 349 348 345 339 334 328 325 329 292 221 312 349 318 301 325 334 330 334 320 303 269 263 239 261 275 259 262 284 248 240 72 222 322 104 25 11 35 348 329 330 334 334 327 325
11 2 356 352 349 346 345 344 344 344 342 340 335 330 325 319 313 284 259 299 326 324 265 288 304 287 317 334 320 302 282 229 237 263 250 272 286 322 259 250 152 91 106 95 65 17 327 336 333 332 325 322 322 321
347 348 347 343 340 340 342 343 342 338 337 334 329 326 323 330 75 18 270 297 301 306 253 277 284 310 339 327 327 323 314 247 221 258 270 277 282 264 255 241 253 140 122 67 6 322 309 323 326 322 320 321 319 321
335 336 337 336 338 339 337 335 335 334 333 331 326 320 317 347 55 309 314 305 254 220 245 209 254 273 325 311 300 306 321 279 270 244 230 274 201 232 231 236 205 150 146 329 321 318 312 316 316 316 318 319 316 320
339 337 341 339 337 338 339 338 338 340 342 342 341 329 311 323 327 329 339 110 139 181 210 245 239 271 321 336 303 314 322 320 295 4 306 230 264 263 268 265 264 244 279 323 333 324 324 318 320 319 320 320 315 319
337 334 337 335 333 336 337 338 336 339 344 349 330 294 297 318 316 301 243 140 292 239 212 237 232 269 288 276 289 270 311 333 276 107 282 249 266 257 239 158 124 158 285 327 327 321 313 310 313 312 313 315 316 319
328 328 335 330 327 329 331 335 336 335 339 328 309 296 302 305 301 21 312 307 233 246 222 218 254 245 277 256 256 275 268 244 251 342 284 253 251 313 266 199 244 346 322 320 321 314 304 306 311 309 311 313 316 318
327 324 328 320 315 320 323 327 333 338 337 320 310 292 324 309 329 181 242 236 263 212 232 247 282 264 255 239 249 273 245 235 337 234 240 247 279 28 21 357 318 302 307 306 307 310 302 301 307 309 310 313 315 317
326 326 329 325 311 318 320 327 333 337 347 313 350 311 191 245 240 206 214 226 243 252 264 266 271 229 212 229 220 247 245 296 258 244 233 202 0 360 354 337 322 311 310 310 313 313 307 307 311 314 314 316 317 319
316 315 320 312 309 305 306 311 317 319 323 275 228 243 224 237 248 258 262 264 268 274 263 279 256 238 205 245 216 292 247 243 227 236 196 352 348 334 329 331 331 330 327 324 322 319 318 317 318 319 319 318 318 318
311 308 315 307 309 300 296 298 306 294 238 239 235 252 236 258 264 255 259 264 293 267 247 225 250 243 222 213 192 221 202 231 253 210 322 322 329 327 330 331 329 324 323 323 322 322 322 322 322 323 323 321 321 322
307 294 316 308 309 300 293 293 301 247 233 221 238 240 244 266 269 278 283 284 275 203 205 196 226 223 105 222 239 197 219 269 111 311 319 322 320 323 325 326 327 325 324 324 324 324 326 326 326 327 328 329 328 327
283 297 305 301 297 291 288 272 226 241 241 228 230 255 245 256 261 270 275 276 247 225 198 214 225 198 225 211 238 242 249 273 300 305 321 324 316 324 328 330 335 335 334 335 334 332 331 332 334 333 332 332 330 332
287 290 285 283 277 271 252 229 207 247 226 245 242 250 255 262 268 276 277 274 267 246 235 218 238 226 230 235 255 248 271 297 304 313 321 309 310 327 336 335 337 337 337 337 337 337 335 336 334 332 333 333 331 329
283 277 275 274 270 249 232 234 217 247 227 245 246 249 250 254 267 269 273 271 250 215 203 221 225 250 272 281 288 297 298 303 308 311 317 310 331 329 331 331 332 332 330 330 332 332 334 333 336 334 335 329 326 330
289 279 273 269 267 258 251 228 228 234 233 238 260 246 253 254 260 260 263 257 198 213 224 226 232 250 286 284 294 308 314 324 328 324 318 320 327 322 322 326 326 327 330 331 333 335 338 337 335 335 332 330 330 328
281 284 270 261 258 243 232 223 225 227 231 247 243 237 247 249 257 258 247 195 221 218 213 235 275 301 299 304 321 331 329 327 321 317 307 308 316 318 320 325 325 325 333 335 334 336 337 335 336 331 332 331 330 330
283 279 261 244 238 230 246 227 222 231 218 219 218 207 231 224 234 209 203 197 182 223 96 60 61 62 35 355 335 323 320 319 319 320 317 316 317 314 315 322 324 326 330 336 338 337 336 337 335 337 335 335 337 334
279 259 242 221 210 229 205 201 213 216 218 202 193 227 237 220 197 199 171 77 89 91 81 61 46 34 7 337 330 325 323 324 322 325 321 321 323 320 323 322 326 330 332 337 342 341 342 340 339 340 342 341 341 343
237 224 233 237 251 320 266 318 302 268 276 312 236 268 26 340 265 43 49 51 98 72 29 14 7 354 342 334 329 327 325 325 327 331 339 327 322 320 317 303 318 336 330 337 343 345 344 340 341 342 342 344 344 336
240 25 25 356 347 352 340 326 343 331 284 316 5 327 334 319 356 54 69 133 46 7 356 354 349 348 350 339 334 335 332 326 324 325 331 328 323 314 313 314 321 333 328 329 335 338 339 341 340 339 341 343 342 337
44 356 3 7 317 314 297 283 294 346 10 10 349 329 333 342 52 69 133 29 354 349 348 348 350 353 354 354 349 344 339 333 330 328 329 327 319 305 303 300 306 320 331 318 321 327 338 340 339 340 337 336 340 340
25 14 349 324 311 270 283 315 20 17 14 3 338 334 340 0 26 125 358 338 348 358 8 19 18 12 6 360 353 348 344 339 336 330 326 321 320 313 298 276 290 299 310 318 313 320 330 342 336 327 331 333 335 338
0 345 339 306 303 348 36 23 11 4 345 325 283 269 303 329 338 328 343 7 34 51 47 38 26 15 4 358 352 347 342 337 334 334 332 328 326 325 309 301 293 297 293 308 311 310 322 333 320 327 334 334 333 334
340 348 324 316 331 284 338 340 333 322 318 299 275 274 282 298 310 305 104 125 104 77 51 32 19 9 359 351 346 343 345 343 336 328 324 322 323 325 324 319 320 317 310 312 314 313 315 320 332 332 329 334 338 340
319 332 310 283 277 302 316 320 323 313 300 294 290 272 281 291 274 202 166 140 86 41 20 6 1 356 348 345 338 331 328 333 329 326 320 317 320 324 324 322 321 319 311 303 308 308 303 309 325 329 329 327 333 339
311 330 332 302 295 308 317 315 311 286 299 319 303 308 306 274 247 207 188 195 292 354 352 347 346 340 335 330 328 325 321 318 317 318 317 320 319 319 318 319 319 310 306 305 301 301 296 302 315 321 321 323 325 328
296 310 305 298 300 321 324 338 298 326 294 295 313 319 297 277 257 204 212 230 276 307 310 329 337 336 334 327 324 322 320 317 316 317 312 307 308 312 310 309 315 315 311 305 304 302 298 301 307 308 306 313 322 324